Tracking 28081 objects as of 27-Sep-2023
HD Live streaming from Space Station
objects crossing your sky now

STARLINK-5321

Track STARLINK-5321 now!
10-day predictions
STARLINK-5321 is classified as:


NORAD ID: 55302
Int'l Code: 2023-010AK
Perigee: 577.2 km
Apogee: 581.2 km
Inclination: 70.0 °
Period: 96.1 minutes
Semi major axis: 6950 km
RCS: Unknown
Launch date: January 19, 2023
Source: United States (US)
Launch site: AIR FORCE WESTERN TEST RANGE (AFWTR)
Your satellite tracking list
Your tracking list is empty




NASA's NSSDC Master Catalog

Two Line Element Set (TLE):
1 55302U 23010AK  23269.85393067 -.00000972  00000-0 -73683-4 0  9995
2 55302  69.9989 120.5665 0002876 267.8212  92.2618 14.98323329 39232
Source of the keplerian elements: AFSPC